Flag for Germany Weather past 2 weeks in Leipzig, Saxony, Germany

39 °F

Partly sunny.

Feels Like: 32 °F
Forecast: 34 / 41 °F
Wind: 12 mph from Southwest

Location: Leipzig-Schkeuditz

Current Time: Nov 25, 2015 at 12:01:00 PM

Latest Report: Nov 25, 2015 at 11:20 AM

Visibility: N/A

Pressure: 29.68 "Hg

Humidity: 75%

Dew point: 32 °F

Location of LeipzigLocation

Historic Weather in Leipzig — Graph


Leipzig temperature yesterday

Maximum temperature yesterday: 39 °F (at 1:20 PM)
Minimum temperature yesterday: 28 °F (at 12:50 AM)
Average temperature yesterday: 34 °F

Past Weeks' High & Low Weather Summary

High61 °F (Nov 10, 1:20 PM)100% (Nov 11, 1:50 AM)30.30 "Hg (Nov 11, 1:50 AM)
Low28 °F (Nov 23, 10:20 PM)55% (Nov 18, 1:20 PM)29.36 "Hg (Nov 21, 12:20 PM)
Average47 °F86%29.90 "Hg
* Reported Nov 10 10:20 AM — Nov 25 10:50 AM, Leipzig, Weather by CustomWeather, © 2015

Note: Actual official high and low records may vary slightly from our data, if they occured in-between our weather recording intervals... More about our weather records


Leipzig weather history for previous 24 hours

Time TempWeatherWind HumidityBarometerVisibility
10:50 AM
Wed, Nov 25
39 °FPartly sunny.14 mph75%29.68 "HgN/A
10:20 AM37 °FBroken clouds.13 mph75%29.71 "HgN/A
9:50 AM37 °FBroken clouds.10 mph81%29.71 "HgN/A
9:20 AM36 °FBroken clouds.15 mph81%29.71 "HgN/A
8:50 AM36 °FBroken clouds.13 mph81%29.71 "HgN/A
8:20 AM36 °FBroken clouds.10 mph81%29.71 "HgN/A
7:50 AM36 °FBroken clouds.12 mph81%29.71 "HgN/A
7:20 AM36 °FPassing clouds.9 mph81%29.68 "HgN/A
6:50 AM36 °FOvercast.10 mph81%29.71 "HgN/A
6:20 AM36 °FOvercast.12 mph81%29.71 "HgN/A
5:50 AM36 °FOvercast.10 mph81%29.71 "HgN/A
5:20 AM36 °FPassing clouds.12 mph81%29.71 "HgN/A
4:20 AM36 °FPassing clouds.12 mph81%29.74 "HgN/A
3:50 AM36 °FPassing clouds.12 mph81%29.74 "HgN/A
3:20 AM36 °FPassing clouds.12 mph81%29.74 "HgN/A
2:50 AM36 °FPassing clouds.13 mph81%29.77 "HgN/A
2:20 AM36 °FPartly cloudy.14 mph81%29.77 "HgN/A
12:50 AM36 °FPartly cloudy.15 mph81%29.80 "HgN/A
12:20 AM36 °FPartly cloudy.15 mph75%29.83 "HgN/A
11:50 PM
Tue, Nov 24
36 °FPartly cloudy.16 mph81%29.86 "HgN/A
11:20 PM36 °FPartly cloudy.15 mph81%29.86 "HgN/A
10:50 PM36 °FPartly cloudy.16 mph81%29.89 "HgN/A
10:20 PM37 °FPartly cloudy.16 mph75%29.89 "HgN/A
9:50 PM36 °FPartly cloudy.15 mph81%29.89 "HgN/A
9:20 PM36 °FPartly cloudy.15 mph81%29.92 "HgN/A
8:50 PM36 °FClear.16 mph81%29.92 "Hg10 mi
8:20 PM36 °FClear.16 mph81%29.95 "Hg10 mi
7:50 PM36 °FClear.15 mph81%29.95 "Hg10 mi
7:20 PM36 °FClear.14 mph81%29.95 "Hg10 mi
6:50 PM36 °FClear.14 mph75%29.98 "Hg10 mi
6:20 PM36 °FClear.13 mph75%29.98 "Hg10 mi
5:50 PM36 °FClear.12 mph75%30.01 "Hg10 mi
5:20 PM37 °FClear.14 mph70%30.01 "Hg10 mi
4:50 PM36 °FClear.14 mph81%30.01 "Hg10 mi
4:20 PM36 °FClear.13 mph81%30.01 "Hg10 mi
3:50 PM37 °FPartly sunny.13 mph75%30.04 "HgN/A
3:20 PM37 °FPartly sunny.12 mph75%30.04 "HgN/A
2:50 PM37 °FPartly sunny.15 mph75%30.07 "HgN/A
2:20 PM37 °FBroken clouds.14 mph75%30.07 "HgN/A
1:50 PM39 °FBroken clouds.14 mph75%30.09 "HgN/A
1:20 PM39 °FSunny.15 mph75%30.09 "Hg10 mi
12:50 PM37 °FSunny.15 mph81%30.12 "Hg10 mi
12:20 PM37 °FSunny.16 mph87%30.12 "Hg10 mi
Weather by CustomWeather, © 2015

See weather overviewHow to use our weather pages